period_start,C,m1,H,J0,J1,J2,J3,J4,J5,JA,JB,JC,JD,JJ,JK,JN,#
2015-03-01 00:02:18,0.19,4.93,0.00,19.33,24.70,27.72,4.92,28.84,1017.11,2040.00,1905.12,2210.39,2384.98,350.05,352.33,26.25,0000 0000 0000 0000 000000
2015-03-01 00:07:20,0.21,4.93,0.00,19.38,24.70,27.73,4.92,28.77,1017.14,2040.00,1903.91,2209.39,2383.95,350.36,352.35,26.28,0000 0000 0000 0000 000000
2015-03-01 00:12:21,0.24,4.94,0.00,19.44,24.71,27.81,4.84,28.88,1017.33,2040.00,1902.62,2208.36,2382.81,350.38,352.60,26.31,0000 0000 0000 0000 000000
2015-03-01 00:17:22,0.20,4.94,0.00,19.46,24.72,27.88,4.87,28.88,1017.40,2040.00,1901.42,2207.39,2381.74,349.71,351.79,26.34,0000 0000 0000 0000 000000
2015-03-01 00:22:24,0.20,4.95,0.00,19.46,24.72,27.79,4.88,28.86,1017.35,2039.99,1900.23,2206.34,2380.70,350.08,352.24,26.37,0000 0000 0000 0000 000000
2015-03-01 00:27:25,0.21,4.96,0.00,19.39,24.72,27.76,4.90,29.00,1017.26,2039.99,1898.98,2205.36,2379.62,349.64,351.58,26.40,0000 0000 0000 0000 000000
2015-03-01 00:32:27,0.22,4.96,0.00,19.38,24.72,27.70,4.88,29.11,1017.16,2039.99,1897.68,2204.37,2378.55,349.70,351.89,26.43,0000 0000 0000 0000 000000
2015-03-01 00:37:28,0.21,4.97,0.00,19.48,24.72,27.79,4.87,28.95,1017.12,2039.99,1896.50,2203.36,2377.47,350.45,352.51,26.45,0000 0000 0000 0000 000000
2015-03-01 00:42:29,0.20,4.98,0.00,19.46,24.72,27.81,4.84,28.99,1017.12,2039.99,1895.22,2202.33,2376.33,350.41,352.70,26.48,0000 0000 0000 0000 000000
2015-03-01 00:47:31,0.20,4.98,0.00,19.46,24.74,27.91,4.84,28.79,1017.19,2039.98,1894.04,2201.41,2375.33,350.02,351.96,26.51,0000 0000 0000 0000 000000
2015-03-01 00:52:32,0.21,4.99,0.00,19.51,24.75,27.92,4.89,29.00,1017.51,2039.99,1892.77,2200.38,2374.26,349.93,352.09,26.54,0000 0000 0000 0000 000000
2015-03-01 00:57:34,0.21,4.99,0.00,19.36,24.75,27.80,4.89,29.02,1017.58,2039.98,1891.50,2199.40,2373.17,350.36,352.86,26.57,0000 0000 0000 0000 000000
2015-03-01 01:02:35,0.20,5.00,0.00,19.43,24.75,27.77,4.85,28.83,1017.59,2039.98,1890.31,2198.40,2372.04,350.01,352.49,26.60,0000 0000 0000 0000 000000
2015-03-01 01:07:36,0.29,5.01,0.00,19.51,24.75,27.88,4.87,28.84,1017.59,2039.97,1888.89,2197.22,2370.56,350.14,352.16,26.63,0000 0000 0000 0000 000000
2015-03-01 01:12:38,0.21,5.01,0.00,19.55,24.76,27.91,4.86,28.82,1017.55,2039.96,1887.55,2195.93,2369.28,349.63,351.95,26.66,0000 0000 0000 0000 000000
2015-03-01 01:17:39,0.20,5.02,0.00,19.58,24.77,27.94,4.84,28.87,1017.39,2039.97,1886.28,2194.93,2368.21,349.53,351.66,26.69,0000 0000 0000 0000 000000
2015-03-01 01:22:40,0.19,5.03,0.00,19.56,24.77,27.95,4.93,29.02,1017.29,2039.96,1885.02,2193.95,2367.15,350.56,352.56,26.72,0000 0000 0000 0000 000000
2015-03-01 01:27:42,0.22,5.03,0.00,19.47,24.77,27.88,4.91,28.96,1017.16,2039.91,1883.72,2192.94,2366.29,350.33,352.39,26.75,0000 0000 0000 0000 000000
2015-03-01 01:32:43,0.20,5.04,0.00,19.50,24.78,27.90,4.87,29.14,1017.30,2039.93,1882.61,2192.00,2365.30,349.89,352.02,26.78,0000 0000 0000 0000 000000
2015-03-01 01:37:45,0.19,5.05,0.00,19.56,24.79,27.94,4.89,29.13,1017.51,2039.88,1881.44,2191.02,2364.17,349.88,352.17,26.81,0000 0000 0000 0000 000000
2015-03-01 01:42:46,0.14,5.05,0.00,19.57,24.80,27.98,4.86,29.06,1017.56,2039.63,1880.21,2190.05,2363.10,349.77,351.81,26.84,0000 0000 0000 0000 000000
2015-03-01 01:47:47,0.23,5.06,0.00,19.57,24.80,27.99,4.87,28.95,1017.55,2039.76,1879.04,2189.12,2362.06,349.99,352.02,26.86,0000 0000 0000 0000 000000
2015-03-01 01:52:48,0.20,5.06,0.00,19.60,24.80,28.03,4.83,29.06,1017.32,2039.65,1877.79,2188.10,2361.01,349.64,351.70,26.89,0000 0000 0000 0000 000000
2015-03-01 01:57:49,0.13,5.07,0.00,19.46,24.81,27.91,4.89,28.95,1017.30,2039.33,1876.67,2187.13,2359.97,350.43,352.60,26.92,0000 0000 0000 0000 000000
2015-03-01 02:02:51,0.20,5.07,0.00,19.51,24.82,27.89,4.89,29.08,1017.34,2039.27,1875.52,2186.24,2358.90,349.82,352.04,26.95,0000 0000 0000 0000 000000
2015-03-01 02:07:52,0.18,5.08,0.00,19.56,24.82,27.98,4.92,29.13,1017.46,2039.18,1874.27,2185.27,2357.87,349.61,351.72,26.98,0000 0000 0000 0000 000000
2015-03-01 02:12:53,0.20,5.08,0.00,19.63,24.82,28.01,4.93,28.93,1017.51,2039.18,1873.16,2184.35,2356.89,350.11,351.89,27.01,0000 0000 0000 0000 000000
2015-03-01 02:17:54,0.22,5.09,0.00,19.62,24.83,28.07,4.84,28.90,1017.53,2039.27,1872.00,2183.49,2355.91,349.45,351.60,27.04,0000 0000 0000 0000 000000
2015-03-01 02:22:56,0.18,5.09,0.00,19.63,24.84,28.06,4.90,28.99,1017.54,2039.11,1870.80,2182.49,2354.89,350.07,352.02,27.07,0000 0000 0000 0000 000000
2015-03-01 02:27:57,0.20,5.10,0.00,19.56,24.85,27.91,4.91,29.01,1017.55,2039.03,1869.59,2181.52,2353.81,349.59,351.68,27.10,0000 0000 0000 0000 000000
2015-03-01 02:32:58,0.21,5.11,0.00,19.57,24.85,27.97,4.90,28.91,1017.59,2039.03,1868.42,2180.59,2352.77,350.16,352.30,27.13,0000 0000 0000 0000 000000
2015-03-01 02:38:00,0.19,5.11,0.00,19.65,24.85,28.02,4.90,28.77,1017.59,2039.02,1867.28,2179.65,2351.74,349.84,351.80,27.16,0000 0000 0000 0000 000000
2015-03-01 02:43:01,0.18,5.12,0.00,19.63,24.87,28.03,4.90,29.07,1017.60,2039.02,1866.09,2178.74,2350.72,350.07,351.86,27.19,0000 0000 0000 0000 000000
2015-03-01 02:48:02,0.18,5.12,0.00,19.67,24.87,28.06,4.90,28.98,1017.59,2039.01,1865.01,2177.85,2349.78,350.08,352.06,27.22,0000 0000 0000 0000 000000
2015-03-01 02:53:03,0.22,5.13,0.00,19.68,24.87,28.09,4.88,28.90,1017.59,2039.01,1863.85,2176.86,2348.78,349.90,352.07,27.25,0000 0000 0000 0000 000000
2015-03-01 02:58:05,0.21,5.14,0.00,19.64,24.87,28.01,4.82,28.98,1017.62,2039.01,1862.65,2175.94,2347.75,349.34,351.32,27.27,0000 0000 0000 0000 000000
2015-03-01 03:03:06,0.19,5.14,0.00,19.60,24.88,27.90,4.84,29.02,1017.63,2039.01,1861.51,2175.05,2346.75,349.82,351.94,27.30,0000 0000 0000 0000 000000
2015-03-01 03:08:07,0.20,5.15,0.00,19.66,24.90,28.06,4.94,28.93,1017.65,2039.01,1860.34,2174.15,2345.74,350.14,352.24,27.33,0000 0000 0000 0000 000000
2015-03-01 03:13:09,0.20,5.15,0.00,19.67,24.90,28.04,4.87,29.10,1017.60,2039.00,1859.17,2173.19,2344.71,349.60,351.73,27.36,0000 0000 0000 0000 000000
2015-03-01 03:18:10,0.20,5.16,0.00,19.71,24.90,28.10,4.96,29.03,1017.60,2039.00,1857.98,2172.29,2343.71,349.71,351.73,27.39,0000 0000 0000 0000 000000
2015-03-01 03:23:11,0.21,5.16,0.00,19.72,24.90,28.11,4.86,28.95,1017.61,2039.00,1856.85,2171.41,2342.67,349.92,351.81,27.42,0000 0000 0000 0000 000000
2015-03-01 03:28:12,0.22,5.17,0.00,19.72,24.92,28.12,4.81,28.99,1017.62,2038.99,1855.71,2170.37,2341.62,349.26,351.16,27.45,0000 0000 0000 0000 000000
2015-03-01 03:33:14,0.19,5.18,0.00,19.67,24.92,28.08,4.84,29.04,1017.64,2038.99,1854.72,2169.55,2340.67,349.56,351.58,27.48,0000 0000 0000 0000 000000
2015-03-01 03:38:15,0.20,5.18,0.00,19.73,24.92,28.07,4.84,29.09,1017.70,2038.99,1853.63,2168.60,2339.66,349.80,351.65,27.51,0000 0000 0000 0000 000000
2015-03-01 03:43:16,0.20,5.19,0.00,19.79,24.92,28.11,4.92,29.16,1017.72,2038.99,1852.36,2167.71,2338.61,349.93,351.92,27.54,0000 0000 0000 0000 000000
2015-03-01 03:48:17,0.18,5.20,0.00,19.75,24.93,28.15,4.89,28.94,1017.70,2038.99,1851.32,2166.77,2337.66,350.24,352.02,27.57,0000 0000 0000 0000 000000
2015-03-01 03:53:19,0.17,5.20,0.00,19.76,24.95,28.15,4.92,29.07,1017.74,2038.97,1850.19,2165.89,2336.70,349.98,352.05,27.60,0000 0000 0000 0000 000000
2015-03-01 03:58:20,0.18,5.21,0.00,19.78,24.95,28.15,4.90,29.03,1017.68,2038.97,1849.06,2165.01,2335.76,349.79,351.80,27.63,0000 0000 0000 0000 000000
2015-03-01 04:03:21,0.19,5.21,0.00,19.77,24.95,28.19,4.88,28.88,1017.70,2038.99,1848.01,2164.14,2334.83,350.35,352.21,27.66,0000 0000 0000 0000 000000
2015-03-01 04:08:22,0.21,5.22,0.00,19.73,24.96,28.07,4.94,28.93,1017.68,2038.98,1846.88,2163.26,2333.86,350.81,352.75,27.68,0000 0000 0000 0000 000000
2015-03-01 04:13:23,0.19,5.22,0.00,19.81,24.97,28.14,4.88,28.86,1017.79,2038.97,1845.84,2162.35,2332.87,349.95,351.82,27.71,0000 0000 0000 0000 000000
2015-03-01 04:18:24,0.21,5.23,0.00,19.82,24.97,28.20,4.87,28.93,1018.02,2038.94,1844.66,2161.47,2331.91,349.95,351.86,27.74,0000 0000 0000 0000 000000
2015-03-01 04:23:25,0.19,5.23,0.00,19.81,24.97,28.15,4.92,28.93,1018.02,2038.98,1843.65,2160.63,2330.97,350.06,351.95,27.77,0000 0000 0000 0000 000000
2015-03-01 04:28:27,0.15,5.24,0.00,19.84,24.97,28.16,4.89,28.94,1018.04,2038.97,1842.66,2159.87,2330.06,350.09,351.97,27.80,0000 0000 0000 0000 000000
2015-03-01 04:33:28,0.17,5.25,0.00,19.87,24.99,28.18,4.90,28.82,1018.07,2038.93,1841.64,2158.97,2329.14,350.43,352.30,27.83,0000 0000 0000 0000 000000
2015-03-01 04:38:29,0.20,5.25,0.00,19.85,25.00,28.19,4.92,29.01,1018.07,2038.90,1840.55,2158.05,2328.20,349.88,351.77,27.86,0000 0000 0000 0000 000000
2015-03-01 04:43:30,0.12,5.26,0.00,19.90,25.00,28.27,4.81,29.09,1018.08,2038.51,1839.36,2157.13,2327.16,349.77,351.71,27.89,0000 0000 0000 0000 000000
2015-03-01 04:48:32,0.13,5.26,0.00,19.89,25.02,28.22,4.86,28.91,1018.08,2038.21,1838.36,2156.27,2326.25,349.88,351.88,27.92,0000 0000 0000 0000 000000
2015-03-01 04:53:33,0.18,5.26,0.00,19.88,25.02,28.27,4.86,29.02,1018.08,2038.11,1837.36,2155.46,2325.29,349.72,351.58,27.95,0000 0000 0000 0000 000000
2015-03-01 04:58:34,0.18,5.27,0.00,19.87,25.03,28.27,4.87,28.84,1018.09,2038.05,1836.24,2154.56,2324.36,349.84,351.52,27.98,0000 0000 0000 0000 000000
2015-03-01 05:03:36,0.15,5.27,0.00,19.91,25.05,28.32,4.89,28.98,1018.10,2038.04,1835.21,2153.79,2323.49,350.30,352.07,28.01,0000 0000 0000 0000 000000
2015-03-01 05:08:37,0.18,5.28,0.00,19.95,25.05,28.33,4.88,28.90,1018.14,2038.01,1834.16,2152.91,2322.49,349.57,351.65,28.04,0000 0000 0000 0000 000000
2015-03-01 05:13:38,0.18,5.29,0.00,19.92,25.07,28.33,4.87,28.88,1018.18,2038.03,1833.09,2152.06,2321.72,350.32,352.07,28.07,0000 0000 0000 0000 000000
2015-03-01 05:18:40,0.18,5.29,0.00,19.94,25.07,28.35,4.87,29.02,1018.24,2038.02,1832.03,2151.17,2320.80,350.34,351.82,28.09,0000 0000 0000 0000 000000
2015-03-01 05:23:41,0.18,5.30,0.00,19.93,25.09,28.33,4.82,28.77,1018.31,2038.00,1831.03,2150.42,2319.89,349.81,351.67,28.12,0000 0000 0000 0000 000000
2015-03-01 05:28:42,0.18,5.30,0.00,19.96,25.10,28.33,4.86,28.88,1018.48,2038.00,1829.95,2149.59,2318.95,349.92,351.86,28.15,0000 0000 0000 0000 000000
2015-03-01 05:33:44,0.17,5.31,0.00,19.97,25.11,28.35,4.93,28.83,1018.56,2038.00,1828.92,2148.84,2318.06,350.72,352.48,28.18,0000 0000 0000 0000 000000
2015-03-01 05:38:45,0.19,5.31,0.00,19.98,25.12,28.37,4.98,29.04,1018.54,2038.00,1827.88,2148.00,2317.23,350.59,352.76,28.21,0000 0000 0000 0000 000000
2015-03-01 05:43:46,0.18,5.32,0.00,19.97,25.12,28.41,4.81,28.76,1018.54,2038.00,1826.92,2147.11,2316.25,349.76,351.86,28.24,0000 0000 0000 0000 000000
2015-03-01 05:48:47,0.19,5.32,0.00,19.97,25.14,28.41,4.87,28.82,1018.34,2037.99,1825.90,2146.38,2315.51,350.01,351.78,28.27,0000 0000 0000 0000 000000
2015-03-01 05:53:48,0.17,5.33,0.00,19.98,25.15,28.39,4.84,28.94,1018.31,2037.99,1824.93,2145.60,2314.63,349.06,351.05,28.30,0000 0000 0000 0000 000000
2015-03-01 05:58:50,0.17,5.33,0.00,19.95,25.16,28.40,4.91,28.93,1018.33,2037.98,1823.89,2144.76,2313.71,350.41,352.33,28.33,0000 0000 0000 0000 000000
2015-03-01 06:03:51,0.14,5.34,0.00,20.01,25.17,28.41,4.81,28.93,1018.33,2037.98,1822.92,2144.01,2312.91,349.97,351.85,28.36,0000 0000 0000 0000 000000
2015-03-01 06:08:53,0.18,5.34,0.00,19.96,25.17,28.41,4.91,28.86,1018.36,2037.99,1821.91,2143.18,2312.04,349.99,351.89,28.39,0000 0000 0000 0000 000000
2015-03-01 06:13:54,0.19,5.35,0.00,19.97,25.19,28.42,4.89,28.78,1018.53,2037.96,1820.90,2142.30,2311.11,350.12,352.25,28.42,0000 0000 0000 0000 000000
2015-03-01 06:18:55,0.19,5.35,0.00,19.97,25.20,28.41,4.92,28.88,1018.57,2037.97,1819.89,2141.51,2310.21,350.60,352.48,28.45,0000 0000 0000 0000 000000
2015-03-01 06:23:56,0.16,5.36,0.00,20.00,25.20,28.41,4.88,28.88,1018.55,2037.97,1818.91,2140.78,2309.40,350.57,352.47,28.47,0000 0000 0000 0000 000000
2015-03-01 06:28:58,0.16,5.37,0.00,20.01,25.22,28.43,4.87,28.91,1018.48,2037.96,1817.90,2140.02,2308.54,349.86,351.68,28.50,0000 0000 0000 0000 000000
2015-03-01 06:33:59,0.17,5.37,0.00,19.99,25.22,28.44,4.94,28.89,1018.44,2037.88,1816.90,2139.14,2307.62,349.66,351.55,28.53,0000 0000 0000 0000 000000
2015-03-01 06:39:00,0.16,5.37,0.00,19.99,25.22,28.44,4.96,29.13,1018.48,2037.63,1815.86,2138.24,2306.74,349.82,351.56,28.56,0000 0000 0000 0000 000000
2015-03-01 06:44:01,0.12,5.38,0.00,19.97,25.24,28.40,4.92,28.93,1018.57,2037.38,1814.87,2137.42,2305.85,350.22,352.09,28.59,0000 0000 0000 0000 000000
2015-03-01 06:49:02,0.19,5.38,0.00,20.00,25.25,28.44,4.90,28.88,1018.57,2037.58,1813.88,2136.77,2305.00,349.86,351.78,28.62,0000 0000 0000 0000 000000
2015-03-01 06:54:04,0.14,5.39,0.00,19.98,25.25,28.44,4.87,28.77,1018.57,2037.39,1812.84,2135.94,2304.10,349.95,351.87,28.65,0000 0000 0000 0000 000000
2015-03-01 06:59:05,0.15,5.39,0.00,20.03,25.25,28.44,4.93,28.81,1018.57,2037.19,1811.79,2135.06,2303.18,350.29,351.83,28.68,0000 0000 0000 0000 000000
2015-03-01 07:04:06,0.19,5.40,0.00,20.01,25.27,28.46,4.95,28.91,1018.58,2037.10,1810.74,2134.22,2302.39,350.08,351.93,28.71,0000 0000 0000 0000 000000
2015-03-01 07:09:08,0.19,5.40,0.00,20.00,25.27,28.46,4.85,28.92,1018.58,2037.14,1809.77,2133.47,2301.61,349.87,351.87,28.74,0000 0000 0000 0000 000000
2015-03-01 07:14:09,0.17,5.41,0.00,20.03,25.27,28.47,4.86,28.86,1018.59,2037.12,1808.71,2132.71,2300.74,349.93,351.82,28.77,0000 0000 0000 0000 000000
2015-03-01 07:19:10,0.13,5.41,0.00,20.05,25.27,28.44,4.88,28.88,1018.61,2037.07,1807.77,2131.94,2299.89,349.96,351.86,28.80,0000 0000 0000 0000 000000
2015-03-01 07:24:11,0.18,5.42,0.00,20.00,25.29,28.46,4.95,28.89,1018.65,2037.04,1806.79,2131.08,2298.97,350.02,352.01,28.83,0000 0000 0000 0000 000000
2015-03-01 07:29:13,0.18,5.42,0.00,20.01,25.30,28.45,4.88,29.00,1018.67,2037.04,1805.88,2130.24,2298.06,349.96,352.03,28.86,0000 0000 0000 0000 000000
2015-03-01 07:34:14,0.20,5.43,0.00,20.01,25.30,28.51,4.87,29.00,1018.98,2037.02,1804.82,2129.46,2297.15,349.85,352.10,28.88,0000 0000 0000 0000 000000
2015-03-01 07:39:15,0.19,5.43,0.00,19.99,25.30,28.48,4.78,28.92,1019.02,2037.01,1803.75,2128.65,2296.26,349.58,351.88,28.91,0000 0000 0000 0000 000000
2015-03-01 07:44:17,0.15,5.44,0.00,19.98,25.30,28.46,4.92,29.01,1019.04,2037.00,1802.79,2127.87,2295.39,350.44,352.54,28.94,0000 0000 0000 0000 000000
2015-03-01 07:49:18,0.18,5.45,0.00,19.99,25.31,28.50,4.81,28.96,1019.06,2037.00,1801.81,2127.06,2294.53,350.03,352.32,28.97,0000 0000 0000 0000 000000
2015-03-01 07:54:20,0.18,5.45,0.00,19.99,25.32,28.46,4.89,28.75,1019.06,2037.00,1800.87,2126.21,2293.65,350.30,352.41,29.00,0000 0000 0000 0000 000000
2015-03-01 07:59:21,0.19,5.46,0.00,20.03,25.32,28.44,4.87,28.87,1019.07,2037.00,1799.84,2125.46,2292.77,350.01,352.21,29.03,0000 0000 0000 0000 000000
2015-03-01 08:04:22,0.17,5.46,0.00,19.99,25.32,28.42,4.90,28.88,1019.11,2037.00,1798.79,2124.66,2291.95,349.98,352.13,29.06,0000 0000 0000 0000 000000
2015-03-01 08:09:23,0.15,5.47,0.00,20.04,25.32,28.50,4.89,28.94,1019.23,2037.00,1797.85,2123.93,2291.06,349.42,351.53,29.09,0000 0000 0000 0000 000000
2015-03-01 08:14:25,0.18,5.47,0.00,20.04,25.32,28.46,4.97,28.81,1019.39,2037.00,1796.91,2123.11,2290.20,350.61,352.70,29.12,0000 0000 0000 0000 000000
2015-03-01 08:19:26,0.19,5.48,0.00,20.08,25.33,28.47,4.81,28.73,1019.43,2037.00,1795.95,2122.36,2289.42,349.41,351.85,29.15,0000 0000 0000 0000 000000
2015-03-01 08:24:27,0.19,5.48,0.00,20.05,25.34,28.41,4.92,28.83,1019.45,2037.00,1794.93,2121.58,2288.48,350.47,352.73,29.18,0000 0000 0000 0000 000000
2015-03-01 08:29:28,0.15,5.49,0.00,20.09,25.35,28.48,4.87,28.78,1019.49,2037.00,1793.93,2120.81,2287.69,350.34,352.78,29.21,0000 0000 0000 0000 000000
2015-03-01 08:34:30,0.17,5.49,0.00,20.10,25.35,28.52,4.91,28.95,1019.53,2037.00,1792.93,2119.99,2286.80,350.07,352.22,29.24,0000 0000 0000 0000 000000
2015-03-01 08:39:31,0.20,5.50,0.00,20.06,25.35,28.52,4.86,28.94,1019.55,2037.00,1791.91,2119.13,2285.84,350.05,352.30,29.27,0000 0000 0000 0000 000000
2015-03-01 08:44:32,0.17,5.51,0.00,20.06,25.35,28.52,4.91,28.93,1019.55,2036.99,1790.98,2118.24,2285.01,350.28,352.62,29.30,0000 0000 0000 0000 000000
2015-03-01 08:49:33,0.18,5.51,0.00,20.07,25.35,28.53,4.91,28.91,1019.55,2036.99,1790.02,2117.61,2284.15,349.84,352.14,29.32,0000 0000 0000 0000 000000
2015-03-01 08:54:35,0.16,5.52,0.00,20.07,25.35,28.52,4.92,28.93,1019.57,2036.99,1789.01,2116.83,2283.25,350.07,352.18,29.35,0000 0000 0000 0000 000000
2015-03-01 08:59:36,0.18,5.52,0.00,20.05,25.36,28.49,4.79,28.74,1019.60,2036.99,1788.04,2116.03,2282.45,349.66,352.05,29.38,0000 0000 0000 0000 000000
2015-03-01 09:04:37,0.19,5.53,0.00,20.08,25.36,28.46,4.92,28.90,1019.84,2036.99,1787.10,2115.24,2281.62,349.90,352.41,29.41,0000 0000 0000 0000 000000
2015-03-01 09:09:38,0.17,5.53,0.00,20.08,25.37,28.46,4.90,28.80,1019.98,2036.99,1786.07,2114.53,2280.82,350.32,352.36,29.44,0000 0000 0000 0000 000000
2015-03-01 09:14:39,0.18,5.54,0.00,20.12,25.37,28.44,4.89,28.75,1020.03,2036.99,1785.07,2113.66,2279.92,349.74,352.23,29.47,0000 0000 0000 0000 000000
2015-03-01 09:19:40,0.15,5.54,0.00,20.06,25.37,28.45,4.98,28.77,1020.03,2036.99,1784.08,2112.92,2279.05,350.30,352.43,29.50,0000 0000 0000 0000 000000
2015-03-01 09:24:42,0.19,5.55,0.00,20.05,25.37,28.48,4.88,28.72,1020.05,2036.98,1783.08,2112.07,2278.16,350.15,352.54,29.53,0000 0000 0000 0000 000000
2015-03-01 09:29:43,0.21,5.55,0.00,20.04,25.37,28.51,4.85,28.70,1020.05,2036.98,1782.03,2111.19,2277.30,349.69,352.18,29.56,0000 0000 0000 0000 000000
2015-03-01 09:34:44,0.17,5.56,0.00,20.09,25.38,28.47,4.93,28.78,1020.07,2036.98,1781.02,2110.71,2276.41,350.34,352.72,29.59,0000 0000 0000 0000 000000
2015-03-01 09:39:45,0.17,5.56,0.00,20.07,25.38,28.49,4.86,29.02,1020.21,2036.97,1779.95,2109.86,2275.51,350.15,352.17,29.62,0000 0000 0000 0000 000000
2015-03-01 09:44:46,0.17,5.57,0.00,20.06,25.39,28.40,4.92,28.85,1020.41,2036.97,1778.99,2109.04,2274.73,349.86,352.47,29.65,0000 0000 0000 0000 000000
2015-03-01 09:49:48,0.20,5.57,0.00,20.09,25.40,28.42,4.91,28.78,1020.49,2036.97,1777.96,2108.25,2273.81,349.88,352.20,29.68,0000 0000 0000 0000 000000
2015-03-01 09:54:49,0.18,5.58,0.00,20.07,25.40,28.41,4.86,28.80,1020.50,2036.97,1776.95,2107.48,2272.95,350.17,352.73,29.70,0000 0000 0000 0000 000000
2015-03-01 09:59:50,0.18,5.59,0.00,20.11,25.40,28.46,4.91,28.90,1020.50,2036.97,1775.93,2106.68,2272.06,350.19,352.67,29.73,0000 0000 0000 0000 000000
2015-03-01 10:04:51,0.17,5.59,0.00,20.12,25.40,28.48,4.98,28.76,1020.50,2036.96,1774.89,2105.88,2271.21,350.29,352.63,29.76,0000 0000 0000 0000 000000
2015-03-01 10:09:53,0.20,5.60,0.00,20.11,25.40,28.53,4.88,28.75,1020.50,2036.95,1773.85,2105.01,2270.20,349.91,352.45,29.79,0000 0000 0000 0000 000000
2015-03-01 10:14:54,0.21,5.60,0.00,20.13,25.40,28.47,4.91,28.97,1020.52,2036.97,1772.81,2104.20,2269.40,350.27,352.90,29.82,0000 0000 0000 0000 000000
2015-03-01 10:19:55,0.18,5.61,0.00,20.13,25.41,28.48,4.83,28.83,1020.52,2036.89,1771.79,2103.33,2268.48,350.17,352.74,29.85,0000 0000 0000 0000 000000
2015-03-01 10:24:57,0.18,5.61,0.00,20.12,25.42,28.47,4.89,28.84,1020.52,2036.83,1770.81,2102.59,2267.63,349.78,352.14,29.88,0000 0000 0000 0000 000000
2015-03-01 10:29:58,0.17,5.62,0.00,20.14,25.42,28.51,4.90,28.75,1020.52,2036.93,1769.78,2101.84,2266.80,350.58,352.85,29.91,0000 0000 0000 0000 000000
2015-03-01 10:34:59,0.18,5.62,0.00,20.15,25.42,28.49,4.81,28.73,1020.52,2036.91,1768.78,2101.00,2265.91,349.87,352.30,29.94,0000 0000 0000 0000 000000
2015-03-01 10:40:01,0.15,5.63,0.00,20.12,25.42,28.51,4.92,28.99,1020.55,2036.76,1767.71,2100.11,2264.96,349.73,352.09,29.97,0000 0000 0000 0000 000000
2015-03-01 10:45:02,0.21,5.63,0.00,20.11,25.42,28.49,4.95,28.93,1020.53,2036.67,1766.70,2099.27,2264.08,350.13,352.53,30.00,0000 0000 0000 0000 000000
2015-03-01 10:50:03,0.15,5.64,0.00,20.10,25.42,28.53,4.94,28.85,1020.55,2036.55,1765.69,2098.56,2263.23,350.69,353.28,30.03,0000 0000 0000 0000 000000
2015-03-01 10:55:04,0.16,5.64,0.00,20.14,25.44,28.53,4.94,28.75,1020.58,2036.41,1764.63,2097.71,2262.32,350.43,352.67,30.06,0000 0000 0000 0000 000000
2015-03-01 11:00:05,0.20,5.65,0.00,20.15,25.45,28.53,4.87,28.78,1020.57,2036.40,1763.61,2096.93,2261.42,349.65,351.80,30.09,0000 0000 0000 0000 000000
2015-03-01 11:05:07,0.19,5.66,0.00,20.13,25.45,28.50,4.90,28.87,1020.59,2036.46,1762.60,2096.09,2260.53,350.26,352.78,30.11,0000 0000 0000 0000 000000
2015-03-01 11:10:08,0.16,5.66,0.00,20.19,25.45,28.57,4.85,28.93,1020.61,2036.21,1761.57,2095.22,2259.67,349.74,352.29,30.14,0000 0000 0000 0000 000000
2015-03-01 11:15:09,0.18,5.66,0.00,20.21,25.45,28.55,4.87,28.82,1020.64,2036.15,1760.58,2094.41,2258.82,349.80,352.15,30.17,0000 0000 0000 0000 000000
2015-03-01 11:20:11,0.16,5.67,0.00,20.21,25.46,28.50,4.85,28.79,1020.62,2036.19,1759.67,2093.72,2257.92,349.64,351.98,30.20,0000 0000 0000 0000 000000
2015-03-01 11:25:12,0.17,5.68,0.00,20.18,25.47,28.58,4.89,28.96,1020.59,2036.11,1758.49,2092.91,2257.02,349.78,352.18,30.23,0000 0000 0000 0000 000000
2015-03-01 11:30:13,0.19,5.68,0.00,20.22,25.47,28.57,4.91,28.82,1020.60,2036.08,1757.48,2092.04,2256.11,350.00,352.45,30.26,0000 0000 0000 0000 000000
2015-03-01 11:35:15,0.21,5.69,0.00,20.17,25.47,28.58,4.85,28.74,1020.56,2036.04,1756.46,2091.12,2255.17,349.54,351.75,30.29,0000 0000 0000 0000 000000
2015-03-01 11:40:16,0.20,5.69,0.00,20.22,25.47,28.60,4.88,28.97,1020.53,2036.04,1755.47,2090.35,2254.28,349.94,352.23,30.32,0000 0000 0000 0000 000000
2015-03-01 11:45:17,0.20,5.70,0.00,20.17,25.48,28.63,4.91,28.90,1020.56,2036.01,1754.37,2089.53,2253.35,350.05,352.37,30.35,0000 0000 0000 0000 000000
2015-03-01 11:50:18,0.19,5.70,0.00,20.19,25.50,28.62,4.88,28.93,1020.65,2036.01,1753.35,2088.69,2252.45,350.02,352.26,30.38,0000 0000 0000 0000 000000
2015-03-01 11:55:19,0.16,5.71,0.00,20.21,25.50,28.63,4.93,28.96,1020.63,2036.01,1752.42,2087.90,2251.63,350.11,352.59,30.41,0000 0000 0000 0000 000000
2015-03-01 12:00:20,0.20,5.72,0.00,20.18,25.50,28.62,4.88,28.94,1020.67,2036.00,1751.39,2087.05,2250.65,350.53,352.90,30.44,0000 0000 0000 0000 000000
2015-03-01 12:05:22,0.20,5.72,0.00,20.21,25.50,28.65,4.97,29.03,1020.80,2036.01,1750.30,2086.17,2249.73,350.10,352.54,30.47,0000 0000 0000 0000 000000
2015-03-01 12:10:23,0.21,5.73,0.00,20.23,25.51,28.68,4.96,28.95,1020.93,2036.00,1749.26,2085.29,2248.73,350.02,352.58,30.50,0000 0000 0000 0000 000000
2015-03-01 12:15:24,0.19,5.73,0.00,20.24,25.52,28.67,4.86,28.95,1021.01,2036.00,1748.19,2084.47,2247.86,349.42,352.18,30.52,0000 0000 0000 0000 000000
2015-03-01 12:20:26,0.18,5.74,0.00,20.30,25.52,28.67,4.83,28.88,1021.00,2036.00,1747.21,2083.67,2246.94,349.89,352.10,30.55,0000 0000 0000 0000 000000
2015-03-01 12:25:27,0.17,5.75,0.00,20.23,25.52,28.65,4.92,28.73,1021.00,2036.00,1746.11,2082.87,2246.04,350.30,352.63,30.58,0000 0000 0000 0000 000000
2015-03-01 12:30:28,0.19,5.75,0.00,20.25,25.53,28.66,4.90,28.82,1021.00,2036.00,1745.10,2082.03,2245.13,349.97,352.49,30.61,0000 0000 0000 0000 000000
2015-03-01 12:35:30,0.21,5.76,0.00,20.25,25.54,28.66,4.93,28.75,1020.94,2036.00,1744.09,2081.17,2244.26,350.22,352.67,30.64,0000 0000 0000 0000 000000
2015-03-01 12:40:31,0.23,5.76,0.00,20.23,25.55,28.61,4.88,28.85,1020.95,2035.99,1742.92,2080.28,2243.27,349.95,352.29,30.67,0000 0000 0000 0000 000000
2015-03-01 12:45:32,0.20,5.77,0.00,20.27,25.55,28.66,4.92,28.88,1020.94,2035.98,1741.86,2079.35,2242.30,349.93,352.34,30.70,0000 0000 0000 0000 000000
2015-03-01 12:50:33,0.21,5.77,0.00,20.30,25.55,28.69,4.90,28.85,1020.89,2035.98,1740.80,2078.51,2241.43,350.30,352.51,30.73,0000 0000 0000 0000 000000
2015-03-01 12:55:34,0.19,5.78,0.00,20.23,25.56,28.70,4.96,29.01,1020.85,2035.98,1739.76,2077.71,2240.47,350.40,352.85,30.76,0000 0000 0000 0000 000000
2015-03-01 13:00:35,0.20,5.79,0.00,20.30,25.57,28.71,4.94,28.85,1020.88,2035.98,1738.67,2076.85,2239.57,349.66,352.16,30.79,0000 0000 0000 0000 000000